Retour au catalogue

KUIPER-00108

ActifCommunicationsLEO
NORAD 65146·PAYLOAD·🇺🇸 United States

Lancé Aug 11, 2025 depuis Cape Canaveral Space Force Station

Loading…

Prochains Passages (prochaines 24 heures)

TLE

FraisSource: CelesTrak SupGP

Époque: Sep 14, 2026, 21:39 UTC

1 65146C 25171Q   26257.90252315  .00007677  00000+0  10049-2 0  2576
2 65146  51.9024  43.9464 0000551 111.1071 118.0367 14.79924652    14

Suivez KUIPER-00108 en temps réel avec AllMySat

Download on the App Store